Chicopee, MA

4:45 AM EST on December 18, 2017 (GMT -0500)
Westover Air Reserve Base / Metropolitan Airport

Weather History for KCEF - March, 2012

Change the Weather History Date:

Friday, March 9, 2012

  Actual Average Record
Temperature  
Mean Temperature 44 °F -  
Max Temperature 57 °F 39 °F 80 °F (2016)
Min Temperature 31 °F 22 °F 3 °F (2007)
Degree Days  
Heating Degree Days 20    
Moisture  
Dew Point 27 °F    
Average Humidity 61    
Maximum Humidity 87    
Minimum Humidity 31    
Precipitation  
Precipitation 0.04 in - - ()
Sea Level Pressure  
Sea Level Pressure 29.99 in    
Wind  
Wind Speed 19 mph (WNW)    
Max Wind Speed 33 mph    
Max Gust Speed 39 mph    
Visibility 9 miles    
Events Rain , Snow    
Averages and records for this station are not official NWS values.
T = Trace of Precipitation, MM = Missing Value Source: NWS Daily Summary

Daily Weather History Graph

Daily Weather History Graph

Search for Another Location

Airport or City:

Trip Planner

Search our weather history database for the weather conditions in past years. The results will help you decide how hot, cold, wet, or windy it might be!

Date:

Astronomy

Mar. 09, 2012 Rise Set
Actual Time 6:11 AM EST 5:50 PM EST
Civil Twilight 5:43 AM EST 6:18 PM EST
Nautical Twilight 5:11 AM EST 6:50 PM EST
Astronomical Twilight 4:38 AM EST 7:23 PM EST
Moon 7:50 PM EST (3/9) 6:25 AM EST (3/9)
Length of Visible Light 12h 34m
Length of Day
11h 38m
Full, 98% of the Moon is Illuminated
Mar 9
Full
Mar 14
Last Quarter
Mar 22
New
Mar 30
First Quarter
Apr 6
Full

Hourly Weather History & Observations

Time (EST) Temp. Windchill Dew Point Humidity Pressure Visibility Wind Dir Wind Speed Gust Speed Precip Events Conditions
12:12 AM 57.2 °F - 46.4 °F 67% 29.76 in 10.0 mi NW 26.5 mph 36.8 mph N/A   Overcast
12:15 AM 55.4 °F - 46.4 °F 72% 29.78 in 8.0 mi NW 32.2 mph 39.1 mph N/A Rain Rain
12:16 AM 53.6 °F - 44.6 °F 72% 29.78 in 6.0 mi NW 33.4 mph 39.1 mph N/A Rain Rain
12:20 AM 50.0 °F - 44.6 °F 82% 29.79 in 4.0 mi NW 21.9 mph 39.1 mph N/A Rain Heavy Rain
12:26 AM 46.4 °F 37.5 °F 41.0 °F 81% 29.80 in 4.0 mi WNW 27.6 mph 36.8 mph N/A Rain Rain
12:31 AM 44.6 °F 36.4 °F 41.0 °F 87% 29.81 in 5.0 mi NW 20.7 mph 36.8 mph N/A Rain Rain
12:39 AM 44.6 °F 37.4 °F 41.0 °F 87% 29.82 in 9.0 mi WNW 16.1 mph - N/A Rain Light Rain
12:51 AM 44.6 °F 37.8 °F 39.2 °F 81% 29.83 in 10.0 mi NW 15.0 mph - N/A Rain Light Rain
12:55 AM 44.1 °F 37.7 °F 39.4 °F 84% 29.84 in 10.0 mi NW 12.7 mph - 0.03 in Rain Light Rain
12:59 AM 44.6 °F 37.8 °F 39.2 °F 81% 29.84 in 10.0 mi NW 15.0 mph - N/A   Overcast
1:52 AM 41.0 °F 30.5 °F 30.2 °F 65% 29.88 in 10.0 mi NW 26.5 mph 32.2 mph N/A   Overcast
1:55 AM 41.0 °F 31.6 °F 30.9 °F 67% 29.88 in 10.0 mi NW 20.7 mph 32.2 mph 0.00 in   Overcast
2:55 AM 37.9 °F 30.0 °F 31.1 °F 76% 29.89 in 10.0 mi NW 12.7 mph 21.9 mph 0.01 in Rain Light Rain
3:09 AM 39.2 °F 32.0 °F 30.2 °F 70% 29.90 in 10.0 mi NW 11.5 mph 21.9 mph N/A   Overcast
3:16 AM 39.2 °F 30.2 °F 32.0 °F 75% 29.90 in 10.0 mi NW 17.3 mph - N/A   Light Drizzle
3:26 AM 37.4 °F 30.3 °F 30.2 °F 75% 29.91 in 10.0 mi NW 10.4 mph 23.0 mph N/A   Overcast
3:55 AM 38.1 °F 30.2 °F 30.0 °F 73% 29.91 in 10.0 mi NW 12.7 mph - 0.00 in   Overcast
4:55 AM 38.3 °F 30.1 °F 28.2 °F 67% 29.95 in 10.0 mi West 13.8 mph - N/A   Overcast
5:55 AM 35.2 °F 25.8 °F 23.5 °F 62% 30.01 in 10.0 mi NW 15.0 mph - N/A   Scattered Clouds
6:55 AM 34.5 °F 25.7 °F 22.1 °F 61% 30.05 in 10.0 mi NW 12.7 mph 23.0 mph N/A   Mostly Cloudy
7:55 AM 35.1 °F 26.9 °F 19.8 °F 54% 30.06 in 10.0 mi WNW 11.5 mph 19.6 mph N/A   Clear
8:55 AM 37.4 °F 28.5 °F 20.7 °F 51% 30.06 in 10.0 mi WNW 15.0 mph 21.9 mph N/A   Clear
9:55 AM 37.8 °F 30.7 °F 19.9 °F 49% 30.08 in 10.0 mi West 10.4 mph - N/A   Clear
10:55 AM 40.8 °F 33.7 °F 18.5 °F 41% 30.06 in 10.0 mi WNW 12.7 mph - N/A   Clear
11:55 AM 43.2 °F 36.6 °F 18.5 °F 37% 30.06 in 10.0 mi West 12.7 mph - N/A   Clear
12:55 PM 44.4 °F 38.2 °F 17.2 °F 34% 30.05 in 10.0 mi West 12.7 mph 23.0 mph N/A   Scattered Clouds
1:55 PM 43.9 °F 37.2 °F 17.1 °F 34% 30.06 in 10.0 mi West 13.8 mph 26.5 mph N/A   Overcast
2:55 PM 41.7 °F 35.6 °F 16.5 °F 36% 30.06 in 10.0 mi WNW 10.4 mph - N/A   Partly Cloudy
3:55 PM 45.0 °F 39.7 °F 16.0 °F 31% 30.05 in 10.0 mi WNW 10.4 mph - N/A   Mostly Cloudy
4:55 PM 43.2 °F 36.6 °F 15.3 °F 32% 30.06 in 10.0 mi NW 12.7 mph - N/A   Clear
5:55 PM 39.2 °F 35.0 °F 16.3 °F 40% 30.09 in 10.0 mi WNW 5.8 mph - N/A   Mostly Cloudy
6:31 PM 41.0 °F 32.5 °F 17.6 °F 39% 30.11 in 10.0 mi WNW 17.3 mph 24.2 mph N/A   Mostly Cloudy
6:41 PM 41.0 °F 33.9 °F 19.4 °F 42% 30.11 in 10.0 mi West 12.7 mph 20.7 mph N/A   Mostly Cloudy
6:55 PM 39.9 °F 30.8 °F 22.3 °F 49% 30.12 in 10.0 mi West 18.4 mph - 0.00 in   Mostly Cloudy
7:03 PM 39.2 °F 30.5 °F 24.8 °F 56% 30.13 in 10.0 mi WNW 16.1 mph - N/A   Overcast
7:23 PM 37.4 °F 29.8 °F 26.6 °F 65% 30.13 in 10.0 mi West 11.5 mph - N/A Snow Light Snow
7:40 PM 35.6 °F 27.1 °F 26.6 °F 70% 30.14 in 10.0 mi WNW 12.7 mph - N/A   Mostly Cloudy
7:55 PM 34.5 °F 28.6 °F 26.1 °F 71% 30.15 in 10.0 mi WNW 6.9 mph - 0.00 in   Scattered Clouds
8:55 PM 33.3 °F - 24.6 °F 71% 30.16 in 10.0 mi Calm Calm - N/A   Clear
9:55 PM 32.5 °F 23.7 °F 24.4 °F 72% 30.18 in 10.0 mi West 11.5 mph - N/A   Partly Cloudy
10:55 PM 33.3 °F 24.1 °F 18.7 °F 55% 30.18 in 10.0 mi NNW 12.7 mph - N/A   Overcast
11:55 PM 31.8 °F 21.4 °F 12.9 °F 46% 30.20 in 10.0 mi WNW 15.0 mph 23.0 mph N/A   Clear